This is the latest recevied weather packets stored in our database for station/object N3WXO-1. If no packets are shown the sender has not sent any weather packets the latest 1 day(s).
| Time | Temp. | Humidity | Pressure | Rain* | Wind** | Luminosity | Snow |
|---|---|---|---|---|---|---|---|
| 1778013921 | 28.33° C | 39% | 1006.9 hPa | 0 mm | 2.24 m/s, 159° | 234 W/m² | - |
| 1778013630 | 28.33° C | 39% | 1007.1 hPa | 0 mm | 2.24 m/s, 210° | 292 W/m² | - |
| 1778013314 | 28.33° C | 39% | 1007 hPa | 0 mm | 4.02 m/s, 198° | 348 W/m² | - |
| 1778013027 | 28.33° C | 40% | 1007.1 hPa | 0 mm | 2.24 m/s, 237° | 439 W/m² | - |
| 1778012741 | 28.33° C | 39% | 1007 hPa | 0 mm | 3.13 m/s, 173° | 381 W/m² | - |
| 1778012421 | 28.33° C | 40% | 1007 hPa | 0 mm | 0.89 m/s, 227° | 373 W/m² | - |
| 1778012115 | 28.33° C | 39% | 1006.9 hPa | 0 mm | 4.02 m/s, 204° | 394 W/m² | - |
| 1778011824 | 28.33° C | 39% | 1006.9 hPa | 0 mm | 0.89 m/s, 149° | 364 W/m² | - |
| 1778011526 | 27.78° C | 38% | 1007 hPa | 0 mm | 3.13 m/s, 193° | 204 W/m² | - |
| 1778011235 | 27.78° C | 39% | 1006.9 hPa | 0 mm | 0.89 m/s, 220° | 355 W/m² | - |
| 1778010920 | 27.22° C | 36% | 1007 hPa | 0 mm | 4.02 m/s, 248° | 158 W/m² | - |
| 1778010627 | 27.78° C | 36% | 1007.1 hPa | 0 mm | 4.02 m/s, 226° | 93 W/m² | - |
| 1778010314 | 27.78° C | 36% | 1007.3 hPa | 0 mm | 4.02 m/s, 229° | 450 W/m² | - |
| 1778010021 | 27.22° C | 37% | 1007.4 hPa | 0 mm | 3.58 m/s, 243° | 285 W/m² | - |
| 1778009729 | 27.22° C | 37% | 1007.6 hPa | 0 mm | 3.13 m/s, 232° | 341 W/m² | - |
| 1778009418 | 27.22° C | 38% | 1007.5 hPa | 0 mm | 3.58 m/s, 217° | 657 W/m² | - |
| 1778009125 | 27.22° C | 35% | 1007.6 hPa | 0 mm | 4.47 m/s, 229° | 246 W/m² | - |
| 1778008832 | 27.78° C | 37% | 1007.7 hPa | 0 mm | 3.13 m/s, 247° | 564 W/m² | - |
| 1778008545 | 27.78° C | 36% | 1007.6 hPa | 0 mm | 4.02 m/s, 208° | 751 W/m² | - |
| 1778008215 | 27.78° C | 34% | 1007.6 hPa | 0 mm | 5.81 m/s, 248° | 503 W/m² | - |
| 1778007920 | 27.78° C | 38% | 1007.5 hPa | 0 mm | 2.24 m/s, 231° | 137 W/m² | - |
| 1778007615 | 27.78° C | 36% | 1007.8 hPa | 0 mm | 4.47 m/s, 217° | 128 W/m² | - |
| 1778004321 | 27.78° C | 40% | 1008.3 hPa | 0 mm | 3.58 m/s, 228° | 91 W/m² | - |
| 1778004035 | 27.22° C | 41% | 1008.4 hPa | 0 mm | 3.13 m/s, 211° | 90 W/m² | - |
| 1778003722 | 27.22° C | 39% | 1008.4 hPa | 0 mm | 3.13 m/s, 266° | 90 W/m² | - |
* Rain latest hour (hover to see other rain measurements)
** Current wind speed in m/s (hover to see current wind gust speed)